This is the latest recevied weather packets stored in our database for station/object N7IGG. If no packets are shown the sender has not sent any weather packets the latest 10 day(s).
| Time | Temp. | Humidity | Pressure | Rain* | Wind** | Luminosity | Snow |
|---|---|---|---|---|---|---|---|
| 1778115082 | 13.33° C | 84% | 1020.7 hPa | 0 mm | - | 42 W/m² | - |
| 1778114779 | 13.33° C | 84% | 1020.7 hPa | 0 mm | - | 50 W/m² | - |
| 1778114476 | 13.33° C | 85% | 1020.9 hPa | 0 mm | - | 53 W/m² | - |
| 1778114172 | 13.33° C | 84% | 1020.7 hPa | 0 mm | - | 49 W/m² | - |
| 1778113867 | 13.33° C | 84% | 1020.9 hPa | 0 mm | - | 46 W/m² | - |
| 1778113564 | 13.33° C | 84% | 1020.9 hPa | 0 mm | - | 51 W/m² | - |
| 1778113260 | 13.33° C | 84% | 1020.7 hPa | 0 mm | - | 53 W/m² | - |
| 1778112957 | 13.33° C | 84% | 1020.7 hPa | 0 mm | - | 57 W/m² | - |
| 1778112654 | 13.33° C | 85% | 1020.7 hPa | 0 mm | - | 53 W/m² | - |
| 1778112350 | 13.33° C | 86% | 1020.7 hPa | 0 mm | - | 42 W/m² | - |
| 1778112046 | 13.33° C | 86% | 1020.7 hPa | 0 mm | - | 44 W/m² | - |
| 1778111744 | 13.33° C | 86% | 1020.7 hPa | 0 mm | - | 48 W/m² | - |
| 1778111439 | 12.78° C | 86% | 1020.9 hPa | 0 mm | - | 49 W/m² | - |
| 1778111137 | 13.33° C | 86% | 1020.8 hPa | 0 mm | - | 49 W/m² | - |
| 1778110833 | 13.33° C | 86% | 1020.9 hPa | 0 mm | - | 49 W/m² | - |
| 1778110530 | 12.78° C | 86% | 1020.9 hPa | 0 mm | - | 53 W/m² | - |
| 1778110227 | 12.78° C | 86% | 1020.8 hPa | 0 mm | - | 56 W/m² | - |
| 1778109923 | 13.33° C | 86% | 1020.8 hPa | 0 mm | - | 60 W/m² | - |
| 1778109643 | 13.33° C | 85% | 1020.9 hPa | 0 mm | - | 66 W/m² | - |
| 1778109316 | 13.33° C | 85% | 1020.9 hPa | 0 mm | - | 60 W/m² | - |
| 1778109014 | 12.78° C | 85% | 1020.8 hPa | 0 mm | - | 66 W/m² | - |
| 1778108710 | 12.78° C | 85% | 1020.9 hPa | 0 mm | - | 69 W/m² | - |
| 1778108408 | 12.78° C | 86% | 1020.8 hPa | 0 mm | - | 78 W/m² | - |
| 1778108105 | 13.33° C | 86% | 1021 hPa | 0 mm | - | 73 W/m² | - |
| 1778107801 | 13.33° C | 86% | 1021 hPa | 0 mm | - | 76 W/m² | - |
* Rain latest hour (hover to see other rain measurements)
** Current wind speed in m/s (hover to see current wind gust speed)